STARLINK-1878 (47163 NORAD) Tracking and Keplerian Element Data
This shows tracking and keplerian element data for the satellite.
Feedback or suggestion? Click here.
Element | Value |
Catalog | 47163 |
Name | STARLINK-1878 |
Epoch Orbit | 175 |
Epoch Day | 62.91667824 |
Epoch Year | 2021 |
RAAN | 254.7702 |
Inclination | 53.0558 |
Eccentricity | 0.0002589 |
Argument of Perigee | 94.7384 |
Mean Anonmoly | 73.2708 |
Mean Motion | 15.06233439 |
Decay Rate | 0.0046543 |
L1 | 1 47163U 20088AT 21062.91667824 .00465430 00000-0 29690-1 0 9992 |
L2 | 2 47163 53.0558 254.7702 0002589 94.7384 73.2708 15.06233439 1751 |
Live tracking and technical data element details for STARLINK-1878 (NORAD 47163). STARLINK-1878 can be tracked NOW for your location showing map with azimuth and elevation plus other details from your city location.
Track the satellite on the map from your city or location and see movement details for azimuth, elevation, latitude, longitude, range, height, and movement on the map or in text.
IsCatalogInMostPopularTable: catalog: 47163, numindb: 42
Update: records affected: 1
GetName: 47163 STARLINK-1878
Hit Count: updated at: Fri, 05 Mar 2021 06:26:09 GMT